Simultaneous Nadir Overpasses (SNOs) Predictions

Prediction of SNOs between METOP-B and TERRA Satellite Orbit:

Table of predicted SNOs for the next 14.0 days since TLE Epoch: 9/14/2013
Index Date (METOP-B) Time (METOP-B) Lat,Lon (METOP-B) SZA (METOP-B ) Date (TERRA) Time (TERRA) Lat,Lon (TERRA) SZA (TERRA ) Distance(km) Time Diff (sec)
1 09/14/2013 22:13:20 -81.30, 73.64 98.88 09/14/2013 22:14:11 -81.31, 73.66 98.85 0.79 51
2 09/14/2013 23:04:00 81.31,-118.74 81.17 09/14/2013 23:03:37 81.32,-118.58 81.19 2.78 23
3 09/17/2013 17:47:42 -81.30, 140.06 97.77 09/17/2013 17:48:25 -81.31, 140.10 97.74 1.10 43
4 09/17/2013 18:38:22 81.31, -52.30 82.28 09/17/2013 18:37:51 81.32, -52.17 82.29 2.40 31
5 09/20/2013 13:22:03 -81.30,-153.56 96.66 09/20/2013 13:22:38 -81.31,-153.53 96.64 0.56 35
6 09/20/2013 14:12:43 81.31, 14.10 83.40 09/20/2013 14:12:04 81.31, 14.16 83.39 1.11 39
7 09/23/2013 08:56:25 -81.30, -87.21 95.55 09/23/2013 08:56:52 -81.30, -87.25 95.55 0.93 27
8 09/23/2013 09:47:04 81.31, 80.86 84.56 09/23/2013 09:46:17 81.32, 80.79 84.53 1.31 47
9 09/26/2013 04:30:46 -81.31, -20.50 94.40 09/26/2013 04:31:05 -81.31, -20.68 94.41 3.04 19




NCC Satellite Simultaneous Nadir Overpasses (SNOs) Prediction Service
